GW6463 Weather Reports


Display with metric or nautical units.
time (UTC)temp
F
wind
direction
speed
MPH
gust
MPH
rain 1hr
in
rain 24hr
in
rain mn
in
humidity
%
barometer
mb
20260505124505 72 0 0.0 0.0 0.00 0.01 0.01 84 1008.1
20260505123820 72 102 0.0 2.0 0.00 0.01 0.01 83 1007.9
20260505122703 73 0 0.0 0.0 0.00 0.01 0.01 81 1008.0
20260505121803 73 0 0.0 0.0 0.00 0.01 0.01 79 1008.3
20260505120905 73 0 0.0 0.0 0.00 0.01 0.01 78 1008.2
20260505120005 73 0 0.0 0.0 0.00 0.01 0.01 78 1008.6
20260505115405 73 276 0.0 1.0 0.00 0.01 0.01 78 1008.6
20260505114503 73 356 0.0 1.0 0.00 0.01 0.01 79 1008.6
20260505113603 73 358 0.0 1.0 0.00 0.01 0.01 77 1008.8
20260505112703 74 341 0.0 2.0 0.00 0.01 0.01 77 1009.4
20260505111804 74 315 0.0 1.0 0.00 0.01 0.01 75 1008.9
20260505110905 74 313 0.0 1.0 0.00 0.01 0.01 75 1009.3
20260505101804 76 76 1.0 4.0 0.00 0.01 0.01 73 1009.5
20260505100903 76 334 1.0 7.0 0.00 0.01 0.01 73 1009.6
20260505100004 77 320 1.0 3.0 0.00 0.01 0.01 70 1009.4
20260505095618 77 332 1.0 3.0 0.00 0.01 0.01 71 1009.5
20260505094721 76 317 2.0 7.0 0.00 0.01 0.01 72 1010.0
20260505093604 76 266 2.0 7.0 0.00 0.01 0.01 74 1010.0
20260505092705 76 322 1.0 7.0 0.00 0.01 0.01 72 1010.3
20260505091804 75 330 1.0 7.0 0.00 0.01 0.01 73 1010.6
20260505090904 75 7 1.0 4.0 0.00 0.01 0.01 74 1010.4
20260505090007 75 356 1.0 4.0 0.00 0.01 0.01 74 1010.4
20260505085405 75 340 1.0 4.0 0.00 0.01 0.01 74 1010.6
20260505084505 73 250 1.0 3.0 0.00 0.01 0.01 75 1011.0
20260505083605 74 351 1.0 6.0 0.00 0.01 0.01 74 1010.6
20260505082705 74 221 1.0 7.0 0.00 0.01 0.01 75 1010.7
20260505081805 74 279 1.0 6.0 0.00 0.01 0.01 74 1011.0
20260505080904 74 334 1.0 6.0 0.00 0.01 0.01 73 1011.1
20260505080006 75 279 1.0 6.0 0.00 0.01 0.01 71 1011.3
20260505075405 75 309 1.0 4.0 0.00 0.01 0.01 71 1011.2
20260505074503 73 346 1.0 4.0 0.00 0.01 0.01 73 1011.3
20260505073820 71 322 0.0 3.0 0.00 0.01 0.01 76 1011.0
20260505072705 71 324 0.0 2.0 0.00 0.01 0.01 77 1011.0
20260505071805 70 8 0.0 2.0 0.01 0.01 0.01 78 1011.3
20260505070903 70 339 1.0 4.0 0.01 0.01 0.01 79 1010.7
20260505070219 69 349 0.0 2.0 0.01 0.01 0.01 79 1010.7
20260505065405 69 337 0.0 2.0 0.01 0.01 0.01 79 1010.8
20260505064505 69 339 0.0 2.0 0.01 0.01 0.01 80 1010.7
20260505063605 68 340 0.0 2.0 0.01 0.01 0.01 80 1010.6
20260505062707 69 351 0.0 3.0 0.01 0.01 0.01 79 1010.3
20260505061805 69 345 1.0 3.0 0.00 0.00 0.00 77 1010.7
20260505060905 69 352 1.0 6.0 0.00 0.00 0.00 74 1010.6
20260505060004 70 354 1.0 6.0 0.00 0.00 0.00 74 1010.5
20260505055404 70 345 1.0 4.0 0.00 0.00 0.00 73 1010.7
20260505054720 70 335 0.0 2.0 0.00 0.00 0.00 75 1011.1
20260505053605 69 16 1.0 4.0 0.00 0.00 0.00 74 1010.3
20260505052705 69 357 1.0 2.0 0.00 0.00 0.00 73 1010.1
20260505051803 69 340 1.0 3.0 0.00 0.00 0.00 75 1010.0
20260505050904 70 338 1.0 3.0 0.00 0.00 0.00 75 1009.9
20260505040905 72 16 1.0 3.0 0.00 0.00 0.00 74 1007.6
20260505040005 72 355 0.0 2.0 0.00 0.00 0.00 77 1007.5
20260505035405 72 348 0.0 2.0 0.00 0.00 0.00 80 1007.5
20260505034505 72 315 0.0 2.0 0.00 0.00 0.00 80 1007.2
20260505033605 72 318 0.0 2.0 0.00 0.00 0.00 80 1007.6
20260505032918 72 322 0.0 2.0 0.00 0.00 0.00 79 1007.5
20260505031803 71 316 1.0 4.0 0.00 0.00 0.00 79 1007.7
20260505031118 71 314 0.0 2.0 0.00 0.00 0.00 79 1007.4
20260505030005 71 320 0.0 2.0 0.00 0.00 0.00 78 1007.6
20260505025404 71 317 1.0 2.0 0.00 0.00 0.00 78 1007.6
20260505024503 71 318 1.0 3.0 0.00 0.00 0.00 78 1007.5
20260505023605 71 312 1.0 3.0 0.00 0.00 0.00 78 1007.8
20260505022705 71 319 1.0 3.0 0.00 0.00 0.00 78 1007.7
20260505021805 71 319 1.0 3.0 0.00 0.00 0.00 78 1007.6
20260505021118 71 312 1.0 3.0 0.00 0.00 0.00 78 1007.9
20260505020004 71 323 1.0 3.0 0.00 0.00 0.00 79 1007.9
20260505015405 71 318 1.0 4.0 0.00 0.00 0.00 79 1007.7
20260505014504 71 326 1.0 4.0 0.00 0.00 0.00 80 1007.8
20260505013605 71 314 1.0 3.0 0.00 0.00 0.00 80 1007.7
20260505012917 71 307 0.0 2.0 0.00 0.00 0.00 80 1007.8
20260505011805 71 315 0.0 1.0 0.00 0.00 0.00 81 1007.9
20260505011122 71 313 0.0 1.0 0.00 0.00 0.00 81 1007.6
20260505010005 71 312 0.0 2.0 0.00 0.00 0.00 81 1007.9
20260505005405 71 319 0.0 2.0 0.00 0.00 0.00 80 1008.2
20260505004504 71 301 0.0 2.0 0.00 0.00 0.00 80 1008.1
20260505003605 71 310 0.0 2.0 0.00 0.00 0.00 81 1008.4
20260505002703 71 317 0.0 2.0 0.00 0.00 0.00 81 1008.1
20260505001805 72 321 0.0 2.0 0.00 0.00 0.00 82 1007.7
20260505000905 72 321 0.0 1.0 0.00 0.00 0.00 82 1008.4
20260505000004 72 319 0.0 1.0 0.00 0.00 0.00 81 1008.6
20260504235405 72 0 0.0 0.0 0.00 0.00 0.00 81 1008.7
20260504234505 72 0 0.0 0.0 0.00 0.00 0.00 81 1008.8
20260504233819 72 264 0.0 1.0 0.00 0.00 0.00 81 1009.2
20260504232705 72 38 0.0 1.0 0.00 0.00 0.00 81 1009.3
20260504231804 72 347 1.0 3.0 0.00 0.00 0.00 80 1009.4
20260504230905 73 10 0.0 2.0 0.00 0.00 0.00 79 1008.9
20260504230005 73 324 0.0 2.0 0.00 0.00 0.00 78 1009.3
20260504225618 73 293 0.0 2.0 0.00 0.00 0.00 78 1009.3
20260504224505 73 40 0.0 2.0 0.00 0.00 0.00 77 1010.0
20260504223605 74 4 1.0 3.0 0.00 0.00 0.00 75 1010.0
20260504222920 74 5 1.0 3.0 0.00 0.00 0.00 75 1009.9
20260504221803 74 320 1.0 3.0 0.00 0.00 0.00 73 1010.1
20260504220904 74 348 1.0 6.0 0.00 0.00 0.00 72 1010.2
20260504220005 74 333 1.0 6.0 0.00 0.00 0.00 71 1010.4
20260504215405 74 348 1.0 4.0 0.00 0.00 0.00 70 1010.6
20260504214504 74 323 2.0 7.0 0.00 0.00 0.00 69 1010.2
20260504213603 74 333 2.0 14.0 0.00 0.00 0.00 67 1010.2
20260504212705 75 355 2.0 7.0 0.00 0.00 0.00 65 1010.4
20260504211805 75 340 3.0 13.0 0.00 0.00 0.00 62 1010.6
20260504210905 75 352 3.0 11.0 0.00 0.00 0.00 60 1010.5
20260504210219 75 342 3.0 10.0 0.00 0.00 0.00 58 1010.7
20260504205403 75 326 3.0 7.0 0.00 0.00 0.00 55 1010.7
20260504204505 75 335 2.0 8.0 0.00 0.00 0.00 55 1010.6
20260504203605 75 342 2.0 8.0 0.00 0.00 0.00 55 1010.5
20260504202705 75 347 2.0 6.0 0.00 0.00 0.00 54 1010.4
20260504201808 74 340 2.0 9.0 0.00 0.00 0.00 54 1009.9
20260504200903 75 60 1.0 3.0 0.00 0.00 0.00 54 1010.0
20260504200004 75 230 0.0 1.0 0.00 0.00 0.00 51 1009.0
20260504195403 76 165 1.0 4.0 0.00 0.00 0.00 55 1008.6
20260504194504 77 262 0.0 3.0 0.00 0.00 0.00 48 1008.1
20260504193603 77 318 0.0 1.0 0.00 0.00 0.00 51 1008.0
20260504192703 77 306 0.0 1.0 0.00 0.00 0.00 51 1007.8
20260504191804 78 293 0.0 1.0 0.00 0.00 0.00 51 1007.7
20260504191119 77 306 0.0 1.0 0.00 0.00 0.00 51 1007.4
20260504190004 77 303 0.0 1.0 0.00 0.00 0.00 53 1007.6
20260504185405 76 303 0.0 1.0 0.00 0.00 0.00 54 1007.4
20260504184505 76 305 0.0 1.0 0.00 0.00 0.00 55 1007.7
20260504183605 77 295 0.0 1.0 0.00 0.00 0.00 54 1007.9
20260504182703 78 306 0.0 1.0 0.00 0.00 0.00 54 1007.8
20260504181806 78 292 0.0 1.0 0.00 0.00 0.00 53 1007.9
20260504180905 78 290 0.0 1.0 0.00 0.00 0.00 53 1007.7
20260504180004 78 302 0.0 1.0 0.00 0.00 0.00 54 1007.8
20260504175405 78 314 0.0 2.0 0.00 0.00 0.00 54 1007.9
20260504174505 78 327 0.0 1.0 0.00 0.00 0.00 54 1007.9
20260504173605 78 313 0.0 2.0 0.00 0.00 0.00 53 1007.8
20260504172704 79 313 0.0 2.0 0.00 0.00 0.00 53 1007.9
20260504171804 79 317 1.0 2.0 0.00 0.00 0.00 52 1007.9
20260504171119 79 311 1.0 4.0 0.00 0.00 0.00 52 1007.8
20260504150903 79 320 0.0 2.0 0.00 0.00 0.00 54 1007.4